sat.trackr.live / text

‹ back to catalog

UNKNOWN

NORAD 81995

UNKNOWN UNKNOWN UNKNOWN

§ Identity

Operator
Country
Launch date
Launch site
Launch vehicle
Mass (kg)
RCS (m²)

External: N2YO · Heavens-Above

§ Orbital elements

Epoch: 2026-05-23T03:54:13.365216Z

Period
102.44 min
Inclination
65.7483°
Eccentricity
0.0510255
Mean motion
14.05728771 rev/d
Perigee alt
504.0 km
Apogee alt
1,244.1 km
Semi-major
7,252.2 km
B*
3.3140e-4
RAAN
60.9507°
Arg perigee
217.5876°
Mean anomaly
138.8505°
Rev number
62,690

§ Raw data

UNKNOWN1 81995U          26143.16265469  .00001670  00000+0  33140-3 0  99942 81995  65.7483  60.9507 0510255 217.5876 138.8505 14.05728771626903

JSON: /api/v1/satellites/81995 · /tle

For live sub-satellite position, see the globe view (requires WebGL).

§ Visibility from observer

Set your observer location to see the next 7 days of passes ≥ 10°. The values pass through the URL so the page stays shareable.

No JS? Fill the form by hand. The geolocation button needs JavaScript.